GW5221 Weather Reports


Display with metric or nautical units.
time (UTC)temp
F
wind
direction
speed
MPH
gust
MPH
rain 1hr
in
rain 24hr
in
rain mn
in
humidity
%
barometer
mb
20260509152443 87 71 4.0 8.0 0.00 0.00 0.00 62 1019.2
20260509151941 88 324 4.0 9.0 0.00 0.00 0.00 60 1019.1
20260509151437 89 110 4.0 8.0 0.00 0.00 0.00 57 1019.3
20260509150935 89 101 5.0 9.0 0.00 0.00 0.00 56 1019.1
20260509150432 89 341 3.0 10.0 0.00 0.00 0.00 58 1019.3
20260509145931 88 112 3.0 4.0 0.00 0.00 0.00 58 1019.4
20260509145431 89 64 2.0 8.0 0.00 0.00 0.00 58 1019.3
20260509144926 89 99 2.0 4.0 0.00 0.00 0.00 58 1019.2
20260509144423 89 316 2.0 8.0 0.00 0.00 0.00 56 1019.4
20260509143920 88 19 4.0 7.0 0.00 0.00 0.00 57 1019.3
20260509143418 88 294 2.0 10.0 0.00 0.00 0.00 56 1019.5
20260509142914 88 185 5.0 10.0 0.00 0.00 0.00 58 1019.6
20260509142411 88 321 1.0 6.0 0.00 0.00 0.00 60 1019.6
20260509141906 87 143 3.0 9.0 0.00 0.00 0.00 61 1019.5
20260509141403 88 191 4.0 7.0 0.00 0.00 0.00 62 1019.6
20260509140900 87 48 2.0 4.0 0.00 0.00 0.00 62 1019.8
20260509140357 86 254 1.0 6.0 0.00 0.00 0.00 65 1019.8
20260509135855 86 180 4.0 9.0 0.00 0.00 0.00 64 1019.7
20260509135352 85 12 2.0 3.0 0.00 0.00 0.00 67 1019.9
20260509134849 85 346 3.0 6.0 0.00 0.00 0.00 67 1019.8
20260509134346 85 86 1.0 9.0 0.00 0.00 0.00 67 1019.7
20260509133843 86 326 2.0 10.0 0.00 0.00 0.00 65 1019.8
20260509133340 86 50 2.0 7.0 0.00 0.00 0.00 64 1019.4
20260509132839 86 30 1.0 7.0 0.00 0.00 0.00 66 1019.6
20260509132337 86 17 2.0 8.0 0.00 0.00 0.00 65 1019.6
20260509131833 86 94 4.0 8.0 0.00 0.00 0.00 64 1019.6
20260509131330 85 60 2.0 4.0 0.00 0.00 0.00 64 1019.8
20260509130826 86 209 4.0 4.0 0.00 0.00 0.00 64 1019.6
20260509130322 85 81 2.0 7.0 0.00 0.00 0.00 64 1019.3
20260509125819 85 151 3.0 7.0 0.00 0.00 0.00 64 1019.5
20260509125315 85 314 5.0 8.0 0.00 0.00 0.00 65 1019.5
20260509124812 86 92 2.0 7.0 0.00 0.00 0.00 65 1019.3
20260509124308 86 332 2.0 7.0 0.00 0.00 0.00 64 1019.3
20260509123807 86 68 2.0 4.0 0.00 0.00 0.00 64 1019.3
20260509123304 86 63 3.0 7.0 0.00 0.00 0.00 64 1019.5
20260509122759 86 6 4.0 9.0 0.00 0.00 0.00 64 1019.3
20260509122257 85 6 2.0 4.0 0.00 0.00 0.00 65 1019.4
20260509121753 84 14 6.0 13.0 0.00 0.00 0.00 65 1019.2
20260509121250 84 311 2.0 9.0 0.00 0.00 0.00 66 1019.3
20260509120749 84 351 2.0 6.0 0.00 0.00 0.00 67 1019.2
20260509120246 84 25 3.0 7.0 0.00 0.00 0.00 68 1019.1
20260509115744 84 202 4.0 9.0 0.00 0.00 0.00 67 1019.0
20260509115241 83 144 3.0 4.0 0.00 0.00 0.00 69 1019.0
20260509114739 83 35 3.0 6.0 0.00 0.00 0.00 71 1019.0
20260509114238 83 335 1.0 7.0 0.00 0.00 0.00 73 1018.9
20260509113736 83 323 3.0 6.0 0.00 0.00 0.00 72 1019.0
20260509113233 83 322 1.0 3.0 0.00 0.00 0.00 72 1018.8
20260509112729 82 3 0.0 4.0 0.00 0.00 0.00 72 1018.9
20260509112227 82 355 2.0 6.0 0.00 0.00 0.00 71 1018.8
20260509111724 81 14 1.0 3.0 0.00 0.00 0.00 73 1018.8
20260509111220 81 44 1.0 8.0 0.00 0.00 0.00 74 1018.7
20260509110718 80 352 1.0 2.0 0.00 0.00 0.00 75 1018.8
20260509110214 80 21 2.0 3.0 0.00 0.00 0.00 75 1018.7
20260509105713 80 108 1.0 7.0 0.00 0.00 0.00 75 1018.6
20260509105210 80 350 2.0 4.0 0.00 0.00 0.00 75 1018.6
20260509104707 80 2 1.0 3.0 0.00 0.00 0.00 76 1018.7
20260509104204 80 258 2.0 4.0 0.00 0.00 0.00 76 1018.5
20260509103702 80 351 1.0 2.0 0.00 0.00 0.00 76 1018.5
20260509103159 80 268 0.0 3.0 0.00 0.00 0.00 75 1018.3
20260509102657 80 17 5.0 7.0 0.00 0.00 0.00 75 1018.3
20260509102153 80 25 2.0 3.0 0.00 0.00 0.00 75 1018.3
20260509101649 80 314 1.0 2.0 0.00 0.00 0.00 75 1018.3
20260509101146 80 345 1.0 3.0 0.00 0.00 0.00 75 1018.1
20260509100644 80 3 3.0 4.0 0.00 0.00 0.00 75 1018.0
20260509100141 80 357 1.0 7.0 0.00 0.00 0.00 76 1018.3
20260509095637 80 343 1.0 3.0 0.00 0.00 0.00 76 1018.2
20260509095135 80 72 0.0 2.0 0.00 0.00 0.00 77 1018.0
20260509094631 80 120 1.0 6.0 0.00 0.00 0.00 77 1018.0
20260509094128 80 100 2.0 3.0 0.00 0.00 0.00 77 1017.9
20260509093627 80 325 1.0 4.0 0.00 0.00 0.00 77 1018.1
20260509093123 80 10 1.0 2.0 0.00 0.00 0.00 77 1017.9
20260509092621 80 249 1.0 3.0 0.00 0.00 0.00 77 1018.0
20260509092120 80 128 1.0 3.0 0.00 0.00 0.00 77 1018.0
20260509091618 80 2 1.0 6.0 0.00 0.00 0.00 77 1017.8
20260509091113 80 237 2.0 3.0 0.00 0.00 0.00 77 1017.7
20260509090611 80 3 2.0 2.0 0.00 0.00 0.00 76 1017.7
20260509090109 80 334 2.0 4.0 0.00 0.00 0.00 76 1017.5
20260509085606 80 323 3.0 7.0 0.00 0.00 0.00 77 1017.5
20260509085101 80 342 1.0 3.0 0.00 0.00 0.00 78 1017.4
20260509084553 80 337 1.0 2.0 0.00 0.00 0.00 78 1017.3
20260509084050 80 334 0.0 3.0 0.00 0.00 0.00 78 1017.2
20260509083547 80 65 2.0 8.0 0.00 0.00 0.00 78 1017.5
20260509083043 80 216 2.0 8.0 0.00 0.00 0.00 80 1017.3
20260509082542 80 49 1.0 3.0 0.00 0.00 0.00 80 1017.4
20260509082038 80 324 0.0 3.0 0.00 0.00 0.00 80 1017.2
20260509081536 80 13 1.0 4.0 0.00 0.00 0.00 81 1017.3
20260509081032 80 358 2.0 4.0 0.00 0.00 0.00 81 1017.3
20260509080530 80 321 0.0 4.0 0.00 0.00 0.00 81 1017.2
20260509080028 80 301 3.0 4.0 0.00 0.00 0.00 81 1017.3
20260509075525 80 337 1.0 2.0 0.00 0.00 0.00 81 1017.4
20260509075023 80 78 2.0 4.0 0.00 0.00 0.00 81 1017.3
20260509074520 80 16 2.0 4.0 0.00 0.00 0.00 81 1017.1
20260509074016 80 330 2.0 6.0 0.00 0.00 0.00 80 1017.4
20260509073513 80 23 1.0 3.0 0.00 0.00 0.00 81 1017.3
20260509073009 80 343 0.0 3.0 0.00 0.00 0.00 81 1017.3
20260509072506 80 354 0.0 8.0 0.00 0.00 0.00 81 1017.3
20260509072003 80 5 0.0 4.0 0.00 0.00 0.00 81 1017.1
20260509071459 80 340 1.0 3.0 0.00 0.00 0.00 81 1017.1
20260509070957 80 331 0.0 4.0 0.00 0.00 0.00 81 1016.8
20260509070454 80 51 0.0 1.0 0.00 0.00 0.00 81 1017.3
20260509065950 80 341 0.0 2.0 0.00 0.00 0.00 81 1017.1
20260509065446 80 352 1.0 3.0 0.00 0.00 0.00 80 1017.1
20260509064942 80 1 0.0 3.0 0.00 0.00 0.00 80 1017.1
20260509064440 80 357 3.0 3.0 0.00 0.00 0.00 80 1017.2
20260509063938 80 345 1.0 4.0 0.00 0.00 0.00 80 1017.4
20260509063438 80 353 1.0 6.0 0.00 0.00 0.00 81 1017.3
20260509062936 80 330 2.0 3.0 0.00 0.00 0.00 81 1017.3
20260509062433 80 15 2.0 3.0 0.00 0.00 0.00 81 1017.4
20260509061931 80 13 0.0 4.0 0.00 0.00 0.00 81 1017.3
20260509061428 80 23 2.0 3.0 0.00 0.00 0.00 81 1017.5
20260509060925 80 35 2.0 3.0 0.00 0.00 0.00 80 1017.6
20260509060422 80 348 1.0 3.0 0.00 0.00 0.00 80 1017.6
20260509055917 80 3 1.0 3.0 0.00 0.00 0.00 80 1017.7
20260509055413 80 30 2.0 3.0 0.00 0.00 0.00 80 1017.6
20260509054910 80 7 1.0 2.0 0.00 0.00 0.00 80 1017.9
20260509054407 80 84 1.0 1.0 0.00 0.00 0.00 80 1017.8
20260509053905 80 15 1.0 2.0 0.00 0.00 0.00 80 1017.9
20260509053402 80 334 2.0 3.0 0.00 0.00 0.00 80 1017.7
20260509052900 80 8 1.0 4.0 0.00 0.00 0.00 80 1017.9
20260509052357 81 18 2.0 6.0 0.00 0.00 0.00 80 1017.8
20260509051855 81 353 1.0 7.0 0.00 0.00 0.00 80 1017.9
20260509051353 81 64 1.0 2.0 0.00 0.00 0.00 80 1018.1
20260509050849 81 326 1.0 3.0 0.00 0.00 0.00 80 1018.0
20260509050346 81 342 0.0 1.0 0.00 0.00 0.00 80 1018.2
20260509045842 81 352 1.0 1.0 0.00 0.00 0.00 80 1018.3
20260509045340 81 346 0.0 1.0 0.00 0.00 0.00 80 1018.2
20260509044837 81 349 1.0 2.0 0.00 0.00 0.00 80 1018.4
20260509044334 81 0 1.0 4.0 0.00 0.00 0.00 80 1018.3
20260509043831 81 312 2.0 3.0 0.00 0.00 0.00 80 1018.4
20260509043327 81 5 1.0 4.0 0.00 0.00 0.00 80 1018.4
20260509042823 81 2 2.0 4.0 0.00 0.00 0.00 80 1018.5
20260509042319 81 4 2.0 2.0 0.00 0.00 0.00 80 1018.5
20260509041816 81 44 0.0 3.0 0.00 0.00 0.00 80 1018.6
20260509041313 81 352 1.0 2.0 0.00 0.00 0.00 80 1018.4
20260509040811 81 12 1.0 3.0 0.00 0.00 0.00 80 1018.4
20260509040308 81 327 0.0 2.0 0.00 0.00 0.00 80 1018.6
20260509035805 81 347 1.0 1.0 0.00 0.00 0.00 79 1018.4
20260509035306 81 37 2.0 6.0 0.00 0.00 0.00 79 1018.4
20260509034759 81 1 2.0 4.0 0.00 0.00 0.00 79 1018.6
20260509034257 81 324 1.0 3.0 0.00 0.00 0.00 79 1018.7
20260509033753 81 351 1.0 2.0 0.00 0.00 0.00 79 1018.7
20260509033250 81 67 1.0 4.0 0.00 0.00 0.00 79 1018.8
20260509032747 81 19 1.0 2.0 0.00 0.00 0.00 79 1018.7
20260509032244 81 346 0.0 3.0 0.00 0.00 0.00 79 1018.8
20260509031742 81 0 1.0 3.0 0.00 0.00 0.00 79 1018.5
20260509031239 81 318 0.0 3.0 0.00 0.00 0.00 79 1018.7
20260509030737 81 34 2.0 4.0 0.00 0.00 0.00 79 1018.6
20260509030234 81 0 1.0 3.0 0.00 0.00 0.00 79 1018.6
20260509025731 81 358 1.0 6.0 0.00 0.00 0.00 79 1018.7
20260509025226 81 22 1.0 4.0 0.00 0.00 0.00 79 1018.7
20260509024722 81 26 1.0 6.0 0.00 0.00 0.00 79 1018.8
20260509024218 81 204 4.0 6.0 0.00 0.00 0.00 79 1018.5
20260509023716 81 356 0.0 2.0 0.00 0.00 0.00 79 1018.7
20260509023213 81 3 2.0 6.0 0.00 0.00 0.00 78 1018.6
20260509022708 81 330 1.0 4.0 0.00 0.00 0.00 78 1018.3
20260509022207 81 314 1.0 9.0 0.00 0.00 0.00 78 1018.4
20260509021703 81 50 1.0 3.0 0.00 0.00 0.00 78 1018.6
20260509021201 81 21 3.0 7.0 0.00 0.00 0.00 78 1018.1
20260509020659 81 21 2.0 8.0 0.00 0.00 0.00 78 1018.2
20260509020155 81 46 1.0 3.0 0.00 0.00 0.00 78 1018.2
20260509015654 81 305 1.0 4.0 0.00 0.00 0.00 78 1018.1
20260509015152 81 62 2.0 3.0 0.00 0.00 0.00 79 1018.1
20260509014648 81 38 4.0 7.0 0.00 0.00 0.00 78 1018.2
20260509014144 81 267 1.0 3.0 0.00 0.00 0.00 78 1018.2
20260509013641 81 308 1.0 4.0 0.00 0.00 0.00 78 1018.0
20260509013137 81 359 1.0 8.0 0.00 0.00 0.00 78 1018.0
20260509012634 81 334 2.0 7.0 0.00 0.00 0.00 77 1017.9
20260509012131 81 5 1.0 4.0 0.00 0.00 0.00 78 1017.7
20260509011629 81 67 3.0 4.0 0.00 0.00 0.00 78 1017.6
20260509011126 81 1 0.0 2.0 0.00 0.00 0.00 78 1017.6
20260509010623 81 352 0.0 2.0 0.00 0.00 0.00 78 1017.7
20260509010119 82 125 1.0 2.0 0.00 0.00 0.00 78 1017.7
20260509005618 82 0 1.0 2.0 0.00 0.00 0.00 77 1017.4
20260509005113 82 315 1.0 4.0 0.00 0.00 0.00 77 1017.4
20260509004609 82 354 2.0 4.0 0.00 0.00 0.00 77 1017.3
20260509004107 82 349 1.0 6.0 0.00 0.00 0.00 77 1017.2
20260509003605 82 14 2.0 4.0 0.00 0.00 0.00 77 1017.0
20260509003102 82 150 3.0 3.0 0.00 0.00 0.00 76 1017.2
20260509002559 82 54 2.0 4.0 0.00 0.00 0.00 76 1017.2
20260509002057 82 349 1.0 4.0 0.00 0.00 0.00 76 1016.9
20260509001554 82 353 3.0 6.0 0.00 0.00 0.00 75 1017.0
20260509001049 82 31 2.0 4.0 0.00 0.00 0.00 75 1016.8
20260509000548 82 8 4.0 6.0 0.00 0.00 0.00 75 1016.8
20260509000044 82 355 2.0 4.0 0.00 0.00 0.00 75 1016.8
20260508235542 82 345 1.0 7.0 0.00 0.00 0.00 75 1016.6
20260508235038 82 350 1.0 8.0 0.00 0.00 0.00 74 1016.5
20260508234536 82 31 1.0 6.0 0.00 0.00 0.00 74 1016.2
20260508234033 82 45 0.0 3.0 0.00 0.00 0.00 74 1016.4
20260508233532 82 88 4.0 8.0 0.00 0.00 0.00 74 1016.4
20260508233029 82 300 2.0 4.0 0.00 0.00 0.00 74 1016.3
20260508232526 82 325 0.0 3.0 0.00 0.00 0.00 73 1016.1
20260508232023 82 354 1.0 4.0 0.00 0.00 0.00 73 1016.3
20260508231520 82 349 2.0 7.0 0.00 0.00 0.00 73 1016.3
20260508231017 83 50 4.0 6.0 0.00 0.00 0.00 73 1016.2
20260508230513 83 80 2.0 6.0 0.00 0.00 0.00 73 1016.2
20260508230010 83 318 0.0 7.0 0.00 0.00 0.00 73 1016.2
20260508225508 83 24 1.0 6.0 0.00 0.00 0.00 73 1016.2
20260508225004 83 12 1.0 6.0 0.00 0.00 0.00 73 1016.2
20260508224502 83 46 2.0 7.0 0.00 0.00 0.00 72 1016.1
20260508223959 84 37 3.0 4.0 0.00 0.00 0.00 72 1016.3
20260508223457 84 77 5.0 10.0 0.00 0.00 0.00 71 1016.0
20260508222954 84 18 2.0 4.0 0.00 0.00 0.00 71 1016.0
20260508222451 84 355 1.0 2.0 0.00 0.00 0.00 71 1015.9
20260508221947 84 19 3.0 7.0 0.00 0.00 0.00 71 1015.9
20260508221444 84 352 2.0 3.0 0.00 0.00 0.00 71 1015.8
20260508220940 85 44 4.0 7.0 0.00 0.00 0.00 71 1015.8
20260508220436 85 42 2.0 6.0 0.00 0.00 0.00 70 1015.9
20260508215933 86 165 4.0 8.0 0.00 0.00 0.00 69 1015.8
20260508215430 86 331 2.0 6.0 0.00 0.00 0.00 68 1015.7
20260508214926 86 170 1.0 3.0 0.00 0.00 0.00 68 1015.6
20260508214424 86 255 2.0 4.0 0.00 0.00 0.00 70 1015.6
20260508213920 86 338 2.0 6.0 0.00 0.00 0.00 70 1015.7
20260508213418 86 343 2.0 7.0 0.00 0.00 0.00 70 1015.5
20260508212913 86 343 2.0 6.0 0.00 0.00 0.00 70 1015.3
20260508212410 87 137 2.0 4.0 0.00 0.00 0.00 69 1015.4
20260508211906 87 348 3.0 6.0 0.00 0.00 0.00 67 1015.4
20260508211401 87 49 1.0 3.0 0.00 0.00 0.00 67 1015.5
20260508210859 87 17 1.0 3.0 0.00 0.00 0.00 66 1015.6
20260508210355 87 348 2.0 6.0 0.00 0.00 0.00 67 1015.6
20260508205852 87 34 3.0 7.0 0.00 0.00 0.00 66 1015.5
20260508205349 87 44 3.0 11.0 0.00 0.00 0.00 66 1015.5
20260508204845 88 347 3.0 8.0 0.00 0.00 0.00 64 1015.4
20260508204342 88 137 2.0 4.0 0.00 0.00 0.00 64 1015.5
20260508203838 88 5 2.0 4.0 0.00 0.00 0.00 64 1015.4
20260508203334 88 325 4.0 8.0 0.00 0.00 0.00 63 1015.3
20260508202830 89 319 2.0 6.0 0.00 0.00 0.00 61 1015.5
20260508202328 89 45 1.0 4.0 0.00 0.00 0.00 59 1015.6
20260508201825 89 77 2.0 7.0 0.00 0.00 0.00 59 1015.6
20260508201323 89 7 2.0 8.0 0.00 0.00 0.00 61 1015.6
20260508200818 89 335 2.0 4.0 0.00 0.00 0.00 61 1015.7
20260508200315 89 323 2.0 7.0 0.00 0.00 0.00 62 1015.8
20260508195811 89 232 4.0 8.0 0.00 0.00 0.00 61 1015.7
20260508195307 90 326 3.0 7.0 0.00 0.00 0.00 60 1015.8
20260508194804 89 323 2.0 7.0 0.00 0.00 0.00 59 1016.0
20260508194301 90 38 2.0 10.0 0.00 0.00 0.00 59 1015.8
20260508193758 90 38 2.0 4.0 0.00 0.00 0.00 57 1016.0
20260508193255 89 185 2.0 10.0 0.00 0.00 0.00 58 1016.1
20260508192751 90 92 5.0 8.0 0.00 0.00 0.00 58 1015.9
20260508192248 90 63 4.0 7.0 0.00 0.00 0.00 59 1016.0
20260508191745 91 142 5.0 8.0 0.00 0.00 0.00 57 1016.0
20260508191242 90 336 2.0 7.0 0.00 0.00 0.00 58 1016.0
20260508190739 91 4 2.0 9.0 0.00 0.00 0.00 56 1016.3
20260508190235 91 16 2.0 6.0 0.00 0.00 0.00 58 1016.3
20260508185732 91 102 3.0 3.0 0.00 0.00 0.00 59 1016.1
20260508185230 91 18 6.0 10.0 0.00 0.00 0.00 59 1016.2
20260508184727 90 344 1.0 3.0 0.00 0.00 0.00 61 1016.4
20260508184224 91 110 4.0 13.0 0.00 0.00 0.00 58 1016.4
20260508183721 91 93 2.0 3.0 0.00 0.00 0.00 59 1016.5
20260508183217 91 97 2.0 9.0 0.00 0.00 0.00 59 1016.5
20260508182713 90 327 4.0 6.0 0.00 0.00 0.00 60 1016.6
20260508182210 91 62 5.0 9.0 0.00 0.00 0.00 59 1016.7
20260508181706 91 164 2.0 6.0 0.00 0.00 0.00 60 1016.6
20260508181203 91 349 1.0 9.0 0.00 0.00 0.00 59 1016.9
20260508180659 91 185 4.0 6.0 0.00 0.00 0.00 60 1016.9
20260508180156 91 8 2.0 7.0 0.00 0.00 0.00 59 1017.0
20260508175653 91 278 4.0 6.0 0.00 0.00 0.00 57 1017.1
20260508175149 91 6 2.0 6.0 0.00 0.00 0.00 58 1017.3
20260508174647 91 34 4.0 7.0 0.00 0.00 0.00 58 1017.2
20260508174144 91 3 2.0 8.0 0.00 0.00 0.00 58 1017.2
20260508173641 91 281 5.0 7.0 0.00 0.00 0.00 57 1017.1
20260508173137 91 276 2.0 6.0 0.00 0.00 0.00 56 1017.3
20260508172634 91 35 2.0 4.0 0.00 0.00 0.00 56 1017.3
20260508172131 91 83 3.0 4.0 0.00 0.00 0.00 56 1017.3
20260508171627 91 326 2.0 9.0 0.00 0.00 0.00 56 1017.4
20260508171124 91 31 4.0 9.0 0.00 0.00 0.00 55 1017.6
20260508170621 90 296 1.0 6.0 0.00 0.00 0.00 56 1017.7
20260508170118 91 20 1.0 8.0 0.00 0.00 0.00 58 1017.7
20260508165610 91 287 3.0 7.0 0.00 0.00 0.00 57 1017.8
20260508165107 91 16 2.0 7.0 0.00 0.00 0.00 58 1017.9
20260508164603 91 293 4.0 6.0 0.00 0.00 0.00 58 1018.0
20260508164100 91 69 3.0 9.0 0.00 0.00 0.00 57 1018.0
20260508163557 90 200 3.0 7.0 0.00 0.00 0.00 60 1018.1
20260508163054 89 63 3.0 8.0 0.00 0.00 0.00 60 1018.2
20260508162551 89 349 3.0 7.0 0.00 0.00 0.00 62 1018.3
20260508162048 89 316 4.0 6.0 0.00 0.00 0.00 61 1018.3
20260508161545 90 298 2.0 8.0 0.00 0.00 0.00 61 1018.5
20260508161042 90 199 3.0 9.0 0.00 0.00 0.00 61 1018.5
20260508160541 89 342 1.0 4.0 0.00 0.00 0.00 61 1018.6
20260508160037 89 336 2.0 9.0 0.00 0.00 0.00 62 1018.6
20260508155535 88 124 2.0 4.0 0.00 0.00 0.00 63 1018.8
20260508155031 87 86 4.0 7.0 0.00 0.00 0.00 65 1018.8
20260508154529 88 153 2.0 3.0 0.00 0.00 0.00 65 1018.8
20260508154025 88 214 4.0 7.0 0.00 0.00 0.00 65 1018.8
20260508153522 88 36 2.0 4.0 0.00 0.00 0.00 66 1019.0
20260508153019 87 180 3.0 6.0 0.00 0.00 0.00 65 1018.9